Terminal Aerodrome Forecast
Issued by NWS

Home | Current Version | Previous Version | Text Only | Print | Product List | Glossary On
Versions: 1 2 3 4 5 6 7 8 9 10 11 12 13 14 15 16 17 18 19 20 21 22 23 24 25 26 27 28 29 30 31 32 33 34 35 36 37
000
FTUS43 KLOT 171900 AAA
TAFORD
TAF AMD
KORD 171954Z 1720/1824 31012G16KT P6SM OVC022
     FM180000 30008KT P6SM BKN020
     FM180800 31005KT P6SM SCT020
     FM181500 34004KT P6SM SCT250=

USA.gov is the U.S. government's official web portal to all federal, state and local government web resources and services.